Location: Unspecified
(51.3762°N, 0.0000°E)
Time: 23:32:24
(UTC+00:00)

O/OREOS (USA 219) - Pass Details

Date: 28 July 2019
Orbit: 621 x 646 km, 72.0° (Epoch: 22 May)

Event Time Altitude Azimuth Distance (km) Brightness Sun altitude
Exits shadow 02:42:46 13° 187° (S) 1,853 ? -11.7°
Maximum altitude 02:46:45 54° 112° (ESE) 779 ? -11.3°
Drops below altitude 10° 02:51:11 10° 36° (NE) 2,027 ? -10.9°
Sets 02:53:29 0° 32° (NNE) 2,936 ? -10.7°
